Change the Weather History Date:

Monday, May 19, 2014

  Actual Average (KFWA) Record (KFWA)
Temperature  
Mean Temperature 54 °F 61 °F  
Max Temperature 66 °F 73 °F 94 °F (1911)
Min Temperature 41 °F 50 °F 30 °F (2002)
Degree Days  
Heating Degree Days 12 5  
Month to date heating degree days 143  
Since 1 July heating degree days 6025  
Cooling Degree Days 0 2  
Month to date cooling degree days 19  
Year to date cooling degree days 27  
Growing Degree Days 4 (Base 50)    
Moisture  
Dew Point 41 °F    
Average Humidity 62    
Maximum Humidity 93    
Minimum Humidity 34    
Precipitation  
Precipitation 0.00 in 0.15 in 1.31 in (1949)
Month to date precipitation 2.35  
Year to date precipitation 12.88  
Snow  
Snow 0.00 in 0.00 in 0.00 in (2002)
Month to date snowfall 0.0  
Since 1 July snowfall 33.5  
Snow Depth -    
Sea Level Pressure  
Sea Level Pressure 30.22 in    
Wind  
Wind Speed 3 mph (SSE)    
Max Wind Speed 14 mph    
Max Gust Speed -    
Visibility 10 miles    
Events      
T = Trace of Precipitation, MM = Missing Value Source: NWS Daily Summary

Daily Weather History Graph

Daily Weather History Graph

Search for Another Location

Airport or City:

Trip Planner

Search our weather history database for the weather conditions in past years. The results will help you decide how hot, cold, wet, or windy it might be!

Date:

Astronomy

May. 19, 2014 Rise Set
Actual Time 6:17 AM EDT 8:57 PM EDT
Civil Twilight 5:45 AM EDT 9:29 PM EDT
Nautical Twilight 5:04 AM EDT 10:09 PM EDT
Astronomical Twilight 4:19 AM EDT 10:55 PM EDT
Moon 12:43 AM EDT (5/19) 11:15 AM EDT (5/19)
Length of Visible Light 15h 44m
Length of Day
14h 39m
Waning Gibbous, 71% of the Moon is Illuminated
May 19
Waning Gibbous
May 21
Last Quarter
May 28
New
Jun 5
First Quarter
Jun 13
Full

Hourly Weather History & Observations

Time (EDT) Temp. Dew Point Humidity Pressure Visibility Wind Dir Wind Speed Gust Speed Precip Events Conditions
12:15 AM 44.6 °F 42.8 °F 93% 30.25 in 10.0 mi Calm Calm - N/A   Clear
12:35 AM 46.4 °F 41.0 °F 81% 30.25 in 10.0 mi Calm Calm - N/A   Clear
12:55 AM 44.6 °F 39.2 °F 81% 30.25 in 10.0 mi Calm Calm - N/A   Clear
1:15 AM 46.4 °F 42.8 °F 87% 30.25 in 10.0 mi Calm Calm - N/A   Clear
1:35 AM 44.6 °F 39.2 °F 81% 30.24 in 10.0 mi Calm Calm - N/A   Clear
1:55 AM 46.4 °F 41.0 °F 81% 30.25 in 10.0 mi Calm Calm - N/A   Clear
2:15 AM 44.6 °F 39.2 °F 81% 30.24 in 10.0 mi Calm Calm - N/A   Clear
2:35 AM 42.8 °F 39.2 °F 87% 30.25 in 10.0 mi Calm Calm - N/A   Clear
2:55 AM 42.8 °F 39.2 °F 87% 30.24 in 10.0 mi Calm Calm - N/A   Clear
3:15 AM 44.6 °F 41.0 °F 87% 30.25 in 10.0 mi Calm Calm - N/A   Clear
3:35 AM 42.8 °F 39.2 °F 87% 30.25 in 10.0 mi Calm Calm - N/A   Clear
3:55 AM 42.8 °F 39.2 °F 87% 30.26 in 10.0 mi Calm Calm - N/A   Clear
4:15 AM 42.8 °F 39.2 °F 87% 30.26 in 10.0 mi Calm Calm - N/A   Clear
4:35 AM 41.0 °F 39.2 °F 93% 30.26 in 10.0 mi Calm Calm - N/A   Clear
4:55 AM 42.8 °F 39.2 °F 87% 30.27 in 10.0 mi Calm Calm - N/A   Clear
5:15 AM 42.8 °F 39.2 °F 87% 30.27 in 10.0 mi Calm Calm - N/A   Clear
5:35 AM 41.0 °F 39.2 °F 93% 30.27 in 10.0 mi Calm Calm - N/A   Clear
5:55 AM 41.0 °F 39.2 °F 93% 30.28 in 10.0 mi Calm Calm - N/A   Clear
6:15 AM 41.0 °F 39.2 °F 93% 30.28 in 10.0 mi Calm Calm - N/A   Clear
6:35 AM 41.0 °F 39.2 °F 93% 30.29 in 10.0 mi Calm Calm - N/A   Clear
6:55 AM 41.0 °F 39.2 °F 93% 30.29 in 10.0 mi Calm Calm - N/A   Clear
7:15 AM 42.8 °F 39.2 °F 87% 30.29 in 10.0 mi Calm Calm - N/A   Clear
7:35 AM 42.8 °F 39.2 °F 87% 30.29 in 10.0 mi Calm Calm - N/A   Clear
7:55 AM 46.4 °F 42.8 °F 87% 30.29 in 10.0 mi Calm Calm - N/A   Clear
8:15 AM 48.2 °F 42.8 °F 82% 30.29 in 10.0 mi Calm Calm - N/A   Clear
8:35 AM 51.8 °F 42.8 °F 71% 30.30 in 10.0 mi Calm Calm - N/A   Clear
8:55 AM 55.4 °F 42.8 °F 63% 30.30 in 10.0 mi Calm Calm - N/A   Clear
10:55 AM 62.6 °F 37.4 °F 39% 30.29 in 10.0 mi South 6.9 mph - N/A   Clear
11:15 AM 62.6 °F 37.4 °F 39% 30.28 in 10.0 mi South 6.9 mph - N/A   Clear
11:35 AM 62.6 °F 37.4 °F 39% 30.27 in 10.0 mi SSW 11.5 mph - N/A   Clear
11:55 AM 62.6 °F 39.2 °F 42% 30.26 in 10.0 mi South 8.1 mph - N/A   Clear
12:15 PM 64.4 °F 37.4 °F 37% 30.27 in 10.0 mi SSW 8.1 mph - N/A   Clear
12:35 PM 64.4 °F 39.2 °F 40% 30.27 in 10.0 mi Variable 6.9 mph - N/A   Clear
12:55 PM 64.4 °F 35.6 °F 34% 30.26 in 10.0 mi South 5.8 mph - N/A   Clear
1:15 PM 64.4 °F 39.2 °F 40% 30.25 in 10.0 mi SSW 10.4 mph - N/A   Clear
1:35 PM 64.4 °F 39.2 °F 40% 30.25 in 10.0 mi South 8.1 mph - N/A   Clear
1:55 PM 66.2 °F 39.2 °F 37% 30.24 in 10.0 mi SSW 12.7 mph - N/A   Clear
2:15 PM 66.2 °F 39.2 °F 37% 30.23 in 10.0 mi SSE 11.5 mph - N/A   Clear
2:35 PM 66.2 °F 41.0 °F 40% 30.22 in 10.0 mi South 10.4 mph - N/A   Clear
3:15 PM 66.2 °F 39.2 °F 37% 30.21 in 10.0 mi South 11.5 mph - N/A   Clear
3:35 PM 66.2 °F 41.0 °F 40% 30.20 in 10.0 mi SSW 12.7 mph - N/A   Clear
3:55 PM 66.2 °F 41.0 °F 40% 30.20 in 10.0 mi South 13.8 mph - N/A   Clear
4:15 PM 66.2 °F 39.2 °F 37% 30.19 in 10.0 mi South 12.7 mph - N/A   Clear
4:35 PM 66.2 °F 39.2 °F 37% 30.18 in 10.0 mi SSE 9.2 mph - N/A   Clear
4:55 PM 66.2 °F 41.0 °F 40% 30.18 in 10.0 mi SSE 10.4 mph - N/A   Clear
5:35 PM 66.2 °F 41.0 °F 40% 30.17 in 10.0 mi South 11.5 mph - N/A   Clear
5:55 PM 66.2 °F 39.2 °F 37% 30.16 in 10.0 mi South 11.5 mph - N/A   Clear
6:15 PM 66.2 °F 48.2 °F 52% 30.15 in 10.0 mi South 12.7 mph - N/A   Clear
6:35 PM 66.2 °F 57.2 °F 73% 30.14 in 10.0 mi South 10.4 mph - N/A   Clear
7:15 PM 66.2 °F 44.6 °F 46% 30.12 in 10.0 mi SSE 8.1 mph - N/A   Clear
7:35 PM 66.2 °F 42.8 °F 43% 30.11 in 10.0 mi South 9.2 mph - N/A   Clear
7:55 PM 64.4 °F 41.0 °F 42% 30.10 in 10.0 mi SSE 10.4 mph - N/A   Scattered Clouds
8:15 PM 64.4 °F 41.0 °F 42% 30.10 in 10.0 mi SSE 8.1 mph - N/A   Partly Cloudy
8:35 PM 64.4 °F 42.8 °F 45% 30.10 in 10.0 mi SSE 9.2 mph - N/A   Mostly Cloudy
8:55 PM 64.4 °F 42.8 °F 45% 30.11 in 10.0 mi South 6.9 mph - N/A   Mostly Cloudy
9:15 PM 62.6 °F 42.8 °F 48% 30.11 in 10.0 mi SSE 5.8 mph - N/A   Mostly Cloudy
9:35 PM 62.6 °F 42.8 °F 48% 30.10 in 10.0 mi SE 6.9 mph - N/A   Mostly Cloudy
9:55 PM 62.6 °F 42.8 °F 48% 30.09 in 10.0 mi SE 6.9 mph - N/A   Partly Cloudy
10:15 PM 62.6 °F 42.8 °F 48% 30.11 in 10.0 mi SSE 6.9 mph - N/A   Mostly Cloudy
10:35 PM 62.6 °F 41.0 °F 45% 30.15 in 10.0 mi South 4.6 mph - N/A   Overcast
10:55 PM 60.8 °F 42.8 °F 52% 30.15 in 10.0 mi SE 4.6 mph - N/A   Overcast
11:15 PM 60.8 °F 42.8 °F 52% 30.14 in 10.0 mi SE 5.8 mph - N/A   Overcast
11:35 PM 59.0 °F 44.6 °F 59% 30.13 in 10.0 mi ESE 8.1 mph - N/A   Overcast
11:55 PM 57.2 °F 44.6 °F 63% 30.13 in 10.0 mi ESE 6.9 mph - N/A   Overcast